Find Starlink 5659

NORAD ID: 55351 Int'l Des: 2023-013 Owner: SPXS Country: US Constellation: starlink operational
LEOCIRCULAR

当前视图

正在加载3D地球...

About Starlink 5659

Starlink 5659 (NORAD 55351) is a starlink constellation satellite (v1.5) launched Jan 26, 2023 by SPXS of US. It operates in LEO, CIRCULAR orbit with a mass of 305.00 kg.

关于 Starlink 5659

正在加载描述...

即将过境

Passes for default location (London). Set your location on the main map for personalized predictions.

高度历史

Loading altitude history...

两行轨道根数

1 55351U 23013W 26167.53988425 -.00000613 00000-0 -12761-4 0 9997
2 55351 43.0055 104.9438 0000610 275.4182 84.6600 15.27572443186798
Epoch: Jun 16, 2026 • Age: 46 hours

当前状态

高度 484.2 km
速度 7.62 km/s
星下点 -7.61°S, 153.97°W
发射日期 Jan 26, 2023
运行时间 3.3 years
类型 internet

技术详情

分类 Payload
质量 305.00 kg
干质量 290.00 kg
总质量 305.00 kg
长度 0.20 m
直径 2.80 m
跨度 9.00 m
形状 Box + pan
制造商 SPXS
平台类型 Starlink
阶段状态 In Orbit
所有者/国家 SPXS/US

Most Searched